This demonstration page uses our WeatherBlox Daily Observations layout. Learn more.

Left ArrowRight Arrow

40.92501, -98.34201

Hourly Observations for July 4, 2022

Temp ( °F °C ) Dew Point ( °F °C ) Humidity (%) Winds ( mph kmh ) Pressure ( in mb ) Visibility ( mi km ) Precip ( " mm )
12:08 am 00:08 Clear with Nearby Thunderstorms 77 25 74 23.3 90 90 S 15 24 29.84 1010 10 16 0.01 0.25
12:17 am 00:17 Partly Cloudy with Thunderstorms 78 25.6 74 23.3 87 87 SSW 13 20 29.86 1011 8 13 0.01 0.25
12:24 am 00:24 Mostly Cloudy with Thunderstorms 77 25 74 23.3 90 90 SW 12 19 29.86 1011 3 5 0.01 0.25
12:27 am 00:27 Mostly Cloudy with Strong Thunderstorms 77 25 74 23.3 90 90 SW 13 20 29.87 1011 3 4 0.03 0.76
12:43 am 00:43 Cloudy with Thunderstorms 76 24.4 72 22.2 88 88 SW 10 17 29.89 1012 3 5 0.14 3.56
12:46 am 00:46 Cloudy with Strong Thunderstorms 76 24.4 72 22.2 88 88 SW 12 19 29.90 1013 3 4 0.16 4.06
12:53 am 00:53 Cloudy with Strong Thunderstorms 75 23.9 72 22.2 90 90 Calm 29.92 1013 1 2 0.27 6.86
1:07 am 01:07 Cloudy with Thunderstorms 75 23.9 68 20 79 79 SSW 9 15 29.88 1012 1 2 0.45 11.43
1:13 am 01:13 Cloudy with Thunderstorms 74 23.3 70 21.1 88 88 SSE 6 9 29.85 1011 3 5 0.50 12.70
1:20 am 01:20 Cloudy with Nearby Thunderstorms 74 23.3 71 21.7 91 91 SE 9 15 29.84 1010 5 8 0.52 13.21
1:42 am 01:42 Cloudy with Light Rain 76 24.4 72 22.2 88 88 E 10 17 29.81 1010 7 11 0.56 14.22
1:53 am 01:53 Cloudy with Light Rain 75 23.9 72 22.2 90 90 E 13 20 29.85 1011 10 16 0.57 14.48
2:53 am 02:53 Clear 76 24.4 72 22.2 88 88 SE 14 22 29.82 1010 10 16 0.01 0.25
3:53 am 03:53 Clear 76 24.4 71 21.7 85 85 SSE 15 24 29.80 1009 10 16 0.00 0.00
4:53 am 04:53 Clear 75 23.9 71 21.7 88 88 SSE 16 26 29.78 1009 10 16 0.00 0.00
5:53 am 05:53 Partly Cloudy 76 24.4 70 21.1 82 82 SSE 10 17 29.80 1009 10 16 0.00 0.00
6:53 am 06:53 Mostly Sunny 75 23.9 69 20.6 82 82 SSE 12 19 29.79 1009 10 16 0.00 0.00
7:53 am 07:53 Mostly Sunny 75 23.9 68 20 79 79 SSE 18 30 29.78 1008 10 16 0.00 0.00
8:53 am 08:53 Sunny 78 25.6 66 18.9 67 67 S 13 20 29.80 1009 10 16 0.00 0.00
9:53 am 09:53 Sunny 80 26.7 67 19.4 64 64 S 13 20 29.78 1009 10 16 0.00 0.00
10:53 am 10:53 Sunny 86 30 68 20 55 55 SSW 14 22 29.79 1009 10 16 0.00 0.00
11:53 am 11:53 Sunny 88 31.1 67 19.4 50 50 SW 18 30 29.79 1009 10 16 0.00 0.00
12:53 pm 12:53 Sunny 92 33.3 68 20 46 46 SSW 16 26 29.78 1009 10 16 0.00 0.00
1:53 pm 13:53 Sunny 95 35 67 19.4 40 40 SW 17 28 29.78 1008 10 16 0.00 0.00
2:53 pm 14:53 Sunny 97 36.1 67 19.4 37 37 SSW 17 28 29.76 1008 10 16 0.00 0.00
3:53 pm 15:53 Sunny 99 37.2 67 19.4 35 35 SW 16 26 29.76 1008 10 16 0.00 0.00
4:53 pm 16:53 Sunny 100 37.8 67 19.4 34 34 S 12 19 29.74 1007 10 16 0.00 0.00
5:53 pm 17:53 Sunny 98 36.7 69 20.6 39 39 SSW 6 9 29.74 1007 10 16 0.00 0.00
6:53 pm 18:53 Sunny 97 36.1 71 21.7 43 43 S 5 7 29.73 1007 10 16 0.00 0.00
7:53 pm 19:53 Sunny 93 33.9 69 20.6 46 46 S 8 13 29.74 1007 10 16 0.00 0.00
8:53 pm 20:53 Sunny 88 31.1 67 19.4 50 50 S 9 15 29.75 1007 10 16 0.00 0.00
9:53 pm 21:53 Clear 85 29.4 66 18.9 53 53 SSE 9 15 29.76 1008 10 16 0.00 0.00
10:53 pm 22:53 Clear 83 28.3 66 18.9 57 57 S 9 15 29.78 1009 10 16 0.00 0.00
11:53 pm 23:53 Clear 82 27.8 66 18.9 58 58 S 9 15 29.80 1009 10 16 0.00 0.00

Powered by AerisWeather